668  
ASUS44 KMOB 191912  
RWRMOB  
REGIONAL WEATHER ROUNDUP  
NATIONAL WEATHER SERVICE MOBILE AL  
200 PM CDT TUE MAR 19 2019  
 
NOTE: "FAIR" INDICATES FEW OR NO CLOUDS BELOW 12,000 FEET WITH NO  
SIGNIFICANT WEATHER AND/OR S TO VISIBILITY
.  
 
* THESE STATIONS ARE PART OF THE UNIVERSITY OF SOUTH ALABAMA  
MESONET AND ARE NOT UNDER NWS OR FAA QUALITY CONTROL.
 
 
ALZ061>064-192000-  
COASTAL ALABAMA  
 
CITY SKY/WX TMP DP RH WIND PRES REMARKS
 
MOBILE REG APT PTSUNNY 63 21 20 N8G18 30.26F  
BROOKLEY FIELD FAIR 66 23 19 NE9G18 30.27F  
USA CAMPUS* N/A 63 19 19 CALM 30.27F  
DOG RIVER* N/A 63 23 22 N5 30.28F  
 
 
CITY SKY/WX TMP DP RH WIND PRES REMARKS
 
GULF SHORES FAIR 64 24 21 CALM 30.24F  
 

 
 
ALZ051>060-192000-  
INTERIOR SOUTHWEST AND SOUTH CENTRAL ALABAMA  
 
CITY SKY/WX TMP DP RH WIND PRES REMARKS
 
GREENVILLE FAIR 63 22 20 NE9 30.25F  
EVERGREEN FAIR 65 24 21 NE10 30.26F  
ATMORE* N/A 61 30 31 VRB10 30.25F  
ANDALUSIA/OPP FAIR 66 27 23 NE8G16 30.24F  
ANDALUSIA* N/A 61 28 29 NE16 30.24F  
FLORALA APT FAIR 63 27 25 E10 30.26F  
FLORALA* N/A 45 3 18 N2 30.24F  
 

 
 
FLZ001>006-192000-  
WESTERN FLORIDA PANHANDLE  
 
CITY SKY/WX TMP DP RH WIND PRES REMARKS
 
PENSACOLA FAIR 65 26 23 VRB6 30.22F  
NAS PENSACOLA FAIR 63 28 26 E8 30.23F  
MILTON FAIR 63 27 25 NE9 30.23F  
WHTNG S FIELD FAIR 64 27 24 NE7G17 30.24F  
 
 
CITY SKY/WX TMP DP RH WIND PRES REMARKS
 
JAY* N/A 63 21 20 N10 30.25F  
DUKE FIELD PTSUNNY 64 27 25 E7 30.23F  
CRESTVIEW FAIR 65 25 22 VRB6 30.25F  
VALPARAISO PTSUNNY 64 27 25 NE12G17 30.22F  
DESTIN FAIR 63 29 27 VRB3 30.23F  
 

 
 
MSZ076-079-192000-  
INTERIOR SOUTHEAST MISSISSIPPI  
 
CITY SKY/WX TMP DP RH WIND PRES REMARKS
 
LEAKESVILLE* N/A 61 23 23 SE6 30.28F  
AGRICOLA* N/A 63 21 20 NW13 30.27F  
 

 
 
MARINE OBSERVATIONS  
 
STATION/POSITION TIME TEMP WIND PRES WAVE
 
AIR SEA DIR/SP/G HT/PER  
(UTC) (F) (DEG/KT/KT) (MB) (FT/S)  
PETIT BOIS ISLND 1848 60 90/ 7/ 9 1025.8F  
GRAND BAY 1730 59 40/ 10 1027.0S  
KATRINA CUT 1830 60/ 12 1025.7F  
CEDAR POINT 1830 58 20/ 10 1025.1F  
E DAUPHIN ISLAND 1800 56 350/ 9/ 10 1025.5F  
USCG MOBILE BAY 1842 61 58 10/ 6/ 12 1024.9F  
STATE DOCKS 1842 62 59 1024.8F  
MEAHER PARK 1830 61 360/ 5 1024.7F  
WEEKS BAY 1745 63 1025.0F  
FORT MORGAN 1848 58 360/ 10/ 12 1024.7F  
12 S ORANGE BCH 1850 1024.6 3/ 6  
PENSACOLA BAY 1848 64 62 120/ 4/ 7 1024.2F  
64 S DAUPHIN ISL 1850 20/ 14/ 21 1024.5F 5/ 7  
 

 
 
SELECTED LOCATIONS ACROSS THE REGION  
 
CITY SKY/WX TMP DP RH WIND PRES REMARKS
 
NEW ORLEANS FAIR 63 30 28 NE9 30.27F  
GULFPORT FAIR 65 23 20 N8 30.26F  
PASCAGOULA AP FAIR 68 25 19 N7G20 30.26F  
PASCAGOULA* N/A 63 23 22 N9 30.26F  
HATTIESBURG FAIR 62 23 22 MISG 30.30F  
LAUREL FAIR 62 22 21 N13 30.30F  
MERIDIAN FAIR 64 22 20 N13G22 30.30F  
JACKSON FAIR 62 21 20 N12 30.32F  
MONTGOMERY FAIR 63 27 25 E9G21 30.29F  
TROY FAIR 62 28 27 NE12 30.26F  
ASHFORD* N/A 61 28 29 NE16 30.24F  
DOTHAN FAIR 63 31 30 E9 30.27F  
PANAMA CITY FAIR 64 34 32 N7 30.21F  
 

 
 
 
 
CLICK HERE TO GO TO PREVIOUS BULLETINS.

The Nexlab AL Page
The Nexlab FL Page
The Nexlab MS Page Main Text Page